Wind_Speed
32 33 33 33 34 35 36 37 38 38 38 39 39 39 38 38 39 38 39 39 40 40 40 41 41 42 41 41 41 42 42 42 42 42 41 41 41 41 41 40 40 40 40 41
32 32 32 33 34 35 36 37 37 38 39 39 39 39 40 39 40 40 39 39 40 41 41 42 42 43 43 43 42 42 43 43 42 42 42 43 43 43 43 43 43 43 42 42
32 31 32 33 34 35 36 37 37 38 39 40 41 41 41 40 40 41 40 40 41 41 41 41 42 43 43 43 43 43 44 44 44 44 44 44 44 44 44 44 45 45 44 44
31 31 32 33 34 35 36 36 37 37 39 40 41 43 41 41 41 41 41 41 40 41 41 41 41 42 43 43 43 44 44 45 44 45 45 45 45 45 45 45 46 46 46 46
32 31 32 33 34 35 36 36 37 37 38 40 40 43 43 42 42 41 41 41 41 41 41 41 41 41 42 43 44 45 45 46 46 45 45 46 46 45 45 46 46 46 46 46
31 32 33 33 32 33 35 36 37 38 38 40 40 41 42 41 41 41 41 41 40 41 41 42 41 41 42 43 44 44 45 46 47 47 46 46 46 46 46 46 46 46 47 47
31 31 32 33 33 33 33 33 34 36 37 39 37 40 41 40 41 41 41 41 40 40 40 41 42 42 42 43 44 44 44 45 46 47 47 47 47 47 47 46 47 47 47 47
31 31 31 32 32 32 32 33 33 35 36 36 36 38 38 39 39 39 40 40 40 40 40 40 41 42 43 43 44 44 44 45 45 46 46 47 47 47 47 47 47 47 48 48
31 31 30 30 30 30 31 32 32 34 35 35 36 36 36 36 37 37 37 38 39 39 40 40 40 41 42 43 43 44 44 45 46 46 46 47 47 48 48 48 48 48 48 49
30 31 30 29 30 30 30 31 32 33 34 35 35 35 35 35 35 35 35 36 36 37 39 40 40 41 41 42 42 43 44 45 46 47 48 48 49 49 49 49 49 49 49 49
30 31 30 30 29 29 29 29 30 32 33 34 35 35 35 35 35 36 36 36 36 36 36 38 39 40 40 41 42 43 44 45 45 47 48 49 49 50 50 50 50 51 51 51
30 31 31 30 29 29 30 30 30 31 32 33 34 34 34 35 36 36 37 36 35 35 36 37 38 39 39 41 42 43 44 45 46 47 48 49 51 51 52 52 52 52 52 52
31 31 31 30 29 28 29 29 30 31 32 32 33 34 34 35 36 37 37 37 36 36 37 37 38 39 40 41 42 43 44 45 46 47 47 49 50 51 52 53 53 53 52 52
31 31 31 30 30 29 29 29 30 31 33 33 33 33 33 34 35 37 37 36 36 37 37 37 38 39 40 41 42 43 44 45 45 46 47 48 49 50 51 52 53 53 53 53
31 31 31 30 30 30 30 31 31 32 33 33 33 33 33 33 34 35 36 36 36 36 36 37 38 39 40 41 43 43 43 44 45 46 47 47 48 49 50 51 51 52 53 53
31 32 31 30 30 30 30 30 31 33 33 33 34 33 33 34 35 36 36 36 36 37 37 37 37 38 39 40 42 43 43 44 44 45 46 46 47 48 48 49 50 51 52 52
30 31 31 31 30 31 31 29 30 31 32 33 34 34 34 35 35 35 36 36 36 37 37 37 38 38 38 40 41 41 42 43 44 44 45 45 46 47 48 49 49 50 50 51
29 29 30 31 31 31 30 30 30 30 30 32 34 34 34 35 34 34 35 35 34 35 36 37 38 39 39 40 40 41 42 43 43 44 45 45 46 47 47 48 49 50 50 50
28 29 30 31 31 32 30 30 30 31 30 31 32 33 34 34 35 35 35 35 35 35 36 37 38 38 39 39 39 39 40 41 42 43 44 44 45 46 47 47 48 48 49 49
28 29 30 31 32 32 31 31 31 32 32 31 31 32 33 33 34 34 34 35 35 36 36 36 36 37 38 38 39 40 40 41 41 42 42 43 44 44 45 45 46 46 47 47
29 29 29 30 31 32 31 31 32 32 32 32 31 31 31 31 32 32 33 33 34 34 34 35 36 36 37 38 38 38 39 40 40 41 41 42 42 43 43 44 44 45 45 45
29 30 30 30 31 31 31 31 32 33 33 32 32 31 31 31 31 31 31 32 32 33 33 33 34 35 35 35 36 37 37 38 39 39 40 40 41 41 42 42 42 43 43 44
29 30 30 31 30 31 31 31 31 32 32 32 32 31 31 30 30 31 31 31 32 33 33 33 34 34 34 34 34 34 35 35 36 37 37 38 39 39 40 40 41 42 42 42
30 30 30 31 30 30 30 30 30 30 31 30 29 29 29 29 30 30 30 31 32 32 33 33 33 33 33 32 32 32 33 33 34 34 34 35 36 37 38 38 39 40 40 40
29 30 30 30 29 29 29 30 30 30 29 28 28 28 28 28 29 29 30 30 30 31 31 32 32 32 32 32 32 31 32 32 32 32 32 33 34 35 36 37 37 37 37 38
28 29 30 29 29 29 29 29 29 29 28 27 27 27 28 28 28 28 29 29 30 30 31 31 31 31 31 32 32 32 32 31 31 31 32 32 33 34 35 35 35 35 36 36
Wind_Direction
274 272 271 270 268 268 268 269 269 268 267 267 266 264 262 262 261 260 260 260 259 259 258 258 257 255 255 255 255 254 253 253 253 253 254 255 256 255 256 256 257 258 258 258
274 273 272 270 268 268 268 269 270 268 267 267 266 264 262 261 261 261 261 261 260 260 259 259 259 256 256 256 255 255 254 254 254 255 255 255 256 256 257 256 257 259 260 260
276 275 273 271 270 269 268 269 270 269 267 266 266 265 262 261 260 261 261 261 261 261 260 260 259 257 256 256 256 256 256 255 254 255 255 256 256 257 257 258 258 259 259 260
278 276 274 272 272 272 270 270 269 269 268 268 267 267 263 263 262 261 262 263 263 262 261 260 259 258 256 255 255 256 256 255 255 256 256 256 257 257 258 258 258 259 259 260
282 279 276 275 273 273 272 271 270 268 268 269 268 268 266 265 264 264 264 264 263 263 261 260 260 259 257 256 255 257 257 255 255 256 256 256 256 257 258 258 258 259 260 260
283 281 277 276 274 274 274 271 270 269 268 269 268 269 269 267 267 266 265 265 265 264 263 262 260 259 257 256 256 256 256 255 255 256 256 256 257 257 258 258 259 259 260 260
285 282 278 276 275 275 274 273 272 271 270 271 271 270 271 270 269 267 266 265 266 264 262 262 261 261 260 258 257 257 257 256 256 256 255 255 256 257 258 259 259 260 260 260
288 285 282 278 277 278 276 273 272 272 271 271 270 271 271 271 271 270 268 266 266 265 263 262 261 261 261 260 259 258 258 257 257 256 255 255 256 257 258 260 260 260 261 261
290 287 284 281 279 278 276 274 273 272 271 271 271 272 273 273 273 272 270 268 267 266 264 263 262 261 260 260 260 260 259 259 258 257 256 256 257 258 259 260 261 261 262 262
290 289 286 281 280 278 277 277 275 272 273 273 273 273 274 273 274 274 273 271 270 268 265 264 263 262 261 260 260 261 261 260 260 258 258 257 257 258 259 260 261 262 262 263
289 287 287 283 280 280 278 277 276 275 274 275 276 276 276 276 275 274 274 273 270 269 267 265 263 263 262 261 261 261 262 262 261 259 258 258 258 259 260 260 261 262 262 263
287 287 286 285 283 280 277 277 277 276 276 276 278 277 277 278 277 276 275 273 272 270 268 266 264 263 262 262 261 261 261 261 261 260 260 259 259 259 259 260 261 262 262 263
285 284 286 285 283 280 279 278 277 277 276 275 276 278 279 279 279 278 277 275 272 270 269 268 267 266 264 263 263 263 262 262 261 261 260 260 260 260 259 259 260 261 262 263
284 282 283 284 285 281 279 278 278 277 277 276 276 278 279 279 278 278 277 276 274 272 271 270 269 268 267 265 264 264 264 264 263 263 262 262 261 261 260 260 261 261 262 263
285 283 282 281 282 281 280 278 278 278 279 278 278 278 278 278 277 277 277 276 275 272 272 272 271 270 270 268 266 266 266 265 265 264 264 264 263 262 262 261 261 262 263 264
286 284 283 280 280 281 281 280 279 277 278 279 279 279 279 278 277 277 276 276 276 275 274 274 273 273 272 271 270 268 267 266 265 265 265 265 265 265 264 264 263 263 263 264
289 287 285 283 283 283 283 284 283 281 278 278 280 280 279 277 277 276 276 276 275 274 273 274 275 275 273 272 271 270 268 267 266 266 266 266 266 267 266 266 266 265 265 264
290 289 287 287 286 286 288 286 285 284 282 280 279 278 278 278 277 278 277 276 275 274 273 274 276 276 274 274 273 271 270 269 268 267 267 267 267 267 268 268 267 266 266 266
290 289 288 288 287 288 289 290 289 287 285 283 281 279 278 277 277 278 279 277 276 275 275 277 277 277 276 275 275 273 272 272 271 269 268 268 268 269 269 269 269 268 268 267
291 290 289 288 288 289 291 291 290 289 288 287 284 282 280 280 279 279 278 278 278 277 277 278 278 278 278 277 276 275 273 273 273 271 270 269 269 269 269 269 269 269 268 268
291 290 290 289 289 290 292 292 291 289 290 288 285 283 282 283 283 282 280 280 280 280 279 280 280 281 280 279 277 276 275 274 274 273 272 270 270 270 270 270 269 269 269 269
291 291 291 291 291 292 292 291 290 290 290 288 286 284 283 282 283 282 282 282 282 282 282 282 283 284 283 281 280 279 277 276 275 275 274 273 272 272 271 271 270 270 270 270
289 290 290 290 291 291 292 291 291 291 291 290 287 285 283 282 283 283 282 281 281 282 283 284 285 285 285 284 283 282 280 279 278 278 276 274 273 273 273 272 272 271 271 270
290 289 289 289 290 290 291 292 291 291 292 292 289 287 285 283 284 284 283 282 282 283 284 285 286 286 286 286 285 285 283 282 281 279 277 275 275 275 275 275 274 272 271 271
292 290 289 289 289 290 291 291 291 292 292 292 290 288 287 286 286 286 285 284 284 285 286 287 288 288 287 287 287 286 286 284 283 282 280 278 278 277 277 277 275 274 272 271
290 290 289 289 290 290 291 291 291 292 292 292 291 289 288 288 287 287 286 285 286 287 288 289 289 289 289 289 288 287 287 286 285 284 283 282 281 280 278 277 275 274 272 271
Height
5678 5678 5677 5677 5677 5677 5677 5677 5677 5678 5677 5677 5678 5679 5680 5681 5683 5685 5686 5688 5690 5691 5693 5694 5696 5698 5700 5702 5704 5706 5708 5710 5712 5714 5716 5718 5720 5721 5723 5725 5726 5728 5729 5731
5669 5669 5669 5667 5667 5667 5667 5667 5668 5668 5667 5668 5668 5669 5670 5671 5673 5675 5677 5678 5680 5681 5683 5685 5686 5688 5690 5692 5694 5696 5698 5700 5702 5704 5706 5708 5710 5711 5713 5715 5716 5717 5719 5721
5660 5661 5659 5658 5658 5658 5658 5658 5659 5658 5657 5657 5658 5658 5660 5662 5664 5666 5667 5668 5670 5671 5673 5675 5676 5677 5679 5681 5684 5685 5687 5689 5691 5693 5695 5697 5699 5700 5702 5704 5705 5706 5708 5709
5651 5652 5650 5650 5649 5648 5649 5649 5648 5647 5647 5647 5648 5647 5651 5652 5654 5656 5658 5659 5660 5661 5663 5664 5665 5667 5668 5671 5672 5674 5676 5678 5680 5682 5684 5685 5687 5690 5691 5693 5694 5695 5696 5698
5644 5643 5642 5641 5641 5640 5639 5639 5639 5638 5637 5637 5638 5637 5640 5642 5644 5646 5648 5649 5650 5651 5652 5653 5655 5656 5657 5659 5661 5662 5664 5666 5668 5670 5672 5674 5676 5678 5680 5681 5682 5683 5684 5685
5636 5634 5633 5632 5632 5631 5630 5630 5629 5628 5627 5627 5630 5628 5629 5631 5634 5636 5637 5638 5639 5640 5641 5642 5644 5645 5646 5648 5649 5651 5652 5654 5656 5658 5659 5662 5664 5665 5667 5668 5670 5671 5672 5673
5627 5626 5625 5624 5623 5622 5621 5621 5620 5618 5617 5618 5620 5618 5620 5622 5623 5625 5626 5627 5628 5629 5631 5632 5633 5634 5635 5637 5638 5639 5640 5642 5644 5645 5647 5649 5651 5653 5655 5656 5658 5659 5659 5660
5618 5618 5617 5615 5615 5614 5613 5612 5612 5610 5609 5610 5609 5609 5612 5613 5613 5614 5615 5616 5617 5618 5620 5621 5622 5623 5624 5625 5626 5627 5628 5630 5631 5633 5635 5637 5639 5641 5642 5643 5645 5646 5647 5647
5610 5609 5608 5607 5606 5606 5604 5603 5603 5602 5601 5600 5600 5602 5603 5603 5604 5604 5605 5606 5607 5608 5609 5610 5611 5612 5613 5614 5615 5616 5617 5618 5619 5621 5622 5624 5626 5628 5630 5631 5632 5633 5634 5634
5603 5601 5601 5599 5598 5597 5596 5595 5595 5593 5591 5591 5592 5593 5595 5595 5595 5595 5595 5595 5596 5597 5598 5598 5599 5601 5602 5603 5604 5604 5605 5606 5607 5608 5610 5611 5613 5615 5616 5618 5619 5620 5621 5621
5595 5594 5593 5592 5590 5589 5589 5588 5586 5585 5584 5583 5583 5587 5586 5586 5585 5585 5585 5585 5586 5586 5587 5587 5588 5589 5590 5591 5591 5592 5593 5594 5595 5596 5597 5598 5600 5601 5602 5604 5605 5606 5607 5608
5588 5586 5584 5584 5583 5581 5580 5579 5579 5578 5577 5575 5575 5580 5577 5577 5576 5576 5575 5575 5575 5575 5576 5577 5577 5578 5578 5579 5580 5580 5581 5581 5582 5583 5584 5585 5586 5587 5588 5590 5591 5592 5593 5594
5580 5578 5577 5575 5577 5575 5573 5572 5570 5569 5568 5568 5567 5571 5569 5568 5566 5565 5565 5565 5565 5565 5566 5566 5566 5567 5567 5568 5568 5568 5568 5569 5569 5570 5571 5572 5572 5573 5574 5576 5577 5578 5579 5579
5571 5570 5570 5568 5566 5565 5564 5564 5562 5561 5560 5559 5560 5560 5560 5558 5556 5556 5555 5555 5555 5555 5555 5555 5555 5556 5556 5556 5556 5556 5556 5557 5557 5557 5558 5558 5559 5559 5560 5561 5562 5563 5564 5565
5563 5562 5561 5560 5558 5557 5556 5556 5554 5553 5552 5551 5552 5551 5551 5549 5547 5546 5545 5545 5544 5544 5544 5544 5544 5544 5544 5544 5544 5544 5544 5544 5544 5544 5544 5545 5545 5546 5546 5547 5548 5549 5550 5551
5555 5554 5553 5552 5551 5549 5548 5547 5546 5545 5543 5542 5542 5542 5541 5539 5537 5536 5535 5535 5534 5534 5534 5533 5533 5533 5533 5532 5532 5532 5532 5532 5531 5531 5531 5531 5531 5532 5532 5533 5534 5534 5535 5536
5548 5546 5544 5544 5542 5540 5540 5540 5537 5536 5535 5534 5532 5533 5531 5529 5528 5527 5526 5525 5524 5523 5523 5523 5522 5522 5521 5520 5520 5520 5519 5519 5519 5518 5518 5518 5518 5518 5518 5519 5519 5520 5521 5521
5540 5538 5536 5534 5534 5532 5535 5531 5529 5527 5526 5524 5523 5522 5521 5520 5518 5517 5516 5515 5514 5513 5512 5511 5511 5510 5509 5509 5508 5507 5507 5506 5506 5506 5506 5505 5505 5505 5505 5505 5505 5506 5506 5506
5533 5530 5528 5526 5524 5523 5525 5522 5520 5518 5517 5516 5514 5512 5511 5509 5508 5508 5506 5505 5504 5503 5502 5501 5500 5499 5498 5497 5496 5495 5494 5493 5493 5492 5492 5492 5492 5492 5492 5492 5492 5492 5492 5492
5525 5523 5521 5518 5516 5515 5517 5514 5510 5509 5508 5507 5504 5502 5501 5500 5499 5499 5496 5495 5493 5492 5491 5490 5489 5488 5486 5485 5484 5483 5482 5481 5480 5480 5479 5479 5478 5478 5478 5478 5478 5478 5478 5478
5518 5516 5514 5511 5508 5507 5507 5504 5502 5501 5500 5497 5495 5493 5492 5490 5489 5488 5486 5485 5483 5482 5481 5480 5478 5477 5475 5473 5472 5471 5470 5469 5468 5467 5466 5466 5465 5465 5464 5464 5464 5464 5464 5464
5510 5508 5506 5503 5501 5502 5498 5496 5494 5492 5489 5487 5485 5484 5482 5481 5480 5478 5477 5475 5474 5472 5471 5470 5468 5466 5464 5462 5460 5459 5458 5457 5456 5454 5454 5453 5452 5452 5451 5451 5451 5451 5451 5451
5503 5501 5498 5497 5496 5493 5490 5487 5485 5483 5481 5478 5476 5475 5473 5472 5471 5469 5468 5466 5465 5463 5462 5460 5458 5456 5454 5452 5450 5448 5447 5445 5444 5443 5442 5441 5440 5439 5439 5438 5438 5438 5438 5438
5495 5493 5490 5488 5487 5484 5481 5479 5477 5475 5472 5470 5468 5466 5464 5463 5462 5460 5459 5457 5456 5454 5452 5450 5448 5446 5444 5442 5440 5438 5436 5434 5433 5431 5430 5429 5428 5428 5427 5426 5425 5425 5425 5425
5487 5484 5481 5480 5478 5476 5474 5471 5469 5467 5464 5461 5459 5458 5456 5454 5453 5451 5450 5448 5446 5444 5443 5441 5439 5437 5435 5432 5430 5428 5426 5424 5423 5421 5420 5418 5417 5416 5416 5415 5413 5413 5413 5412
5479 5476 5473 5472 5470 5468 5466 5463 5461 5459 5456 5454 5452 5450 5448 5446 5445 5443 5441 5439 5437 5436 5434 5432 5429 5427 5425 5423 5421 5419 5417 5415 5413 5411 5410 5408 5407 5406 5404 5403 5403 5401 5401 5401